Regional Weather Roundup
Issued by NWS Burlington, VT

Home | Current Version | Previous Version | Text Only | Print | Product List | Glossary On
Versions: 1 2 3 4 5 6 7 8 9 10 11 12 13 14 15 16 17 18 19 20 21 22 23 24 25 26 27 28 29 30 31 32 33 34 35 36 37 38 39 40 41 42 43 44 45 46 47 48 49 50
343
ASUS41 KBTV 300210
RWRBTV
VERMONT REGIONAL WEATHER ROUNDUP
NATIONAL WEATHER SERVICE BURLINGTON VT
1000 PM EDT FRI JUL 29 2016

NOTE: "FAIR" INDICATES FEW OR NO CLOUDS BELOW 12,000 FEET WITH NO
SIGNIFICANT WEATHER AND/OR OBSTRUCTIONS TO VISIBILITY.

* THESE REPORTS ARE NOT UNDER NWS QUALITY CONTROL AND/OR DO NOT
  REPORT WEATHER SUCH AS PRECIPITATION AND FOG.

VTZ001>019-300300-
_____VERMONT_____


CITY           SKY/WX    TMP DP  RH WIND       PRES   REMARKS
BURLINGTON     FAIR      71  58  63 NW3       29.98R
MONTPELIER     FAIR      63  56  78 CALM      30.03R
MORRISVILLE    FAIR      61  57  87 CALM      30.01R
ST. JOHNSBURY*   N/A     68  57  68 MISG      29.96R
LYNDONVILLE*   FAIR      65  55  72 W3        30.01S
MIDDLEBURY*    FAIR      66  58  74 CALM      29.97R
RUTLAND*       FAIR      67  60  78 N3        29.98R
SPRINGFIELD    FAIR      73  54  51 NE3       29.96R
HIGHGATE*      FAIR      67  56  69 NE3       29.99R
NEWPORT*       FAIR      62  55  79 CALM      30.02R
BENNINGTON     FAIR      64  59  83 S3        29.96R

_____LAKE CHAMPLAIN_____


CITY           SKY/WX    TMP DP  RH WIND       PRES   REMARKS
BURTON ISLAND*   N/A     70  59  68 N1          N/A
COLCHESTER RF*   N/A    N/A N/A N/A NE14        N/A
DIAMOND ISL*     N/A     73  63  68 NW9         N/A

$$

NYZ007-026>031-035-052-083-087-300300-
_____NORTHERN NEW YORK_____


CITY           SKY/WX    TMP DP  RH WIND       PRES   REMARKS
PLATTSBURGH    CLOUDY    70  59  68 NW7       29.98R
SARANAC LAKE   CLEAR     57  54  89 CALM      30.03R
MASSENA        PTCLDY    68  54  60 N9        30.02R
OGDENSBURG*    CLEAR     68  57  68 NE5       30.02R
POTSDAM*       CLEAR     66  61  82 CALM      30.02R
WATERTOWN      CLEAR     70  54  56 NE9       30.00R
FT DRUM        CLEAR     67  56  68 NE7       30.01R
ALBANY         PTCLDY    75  57  53 N9        29.93R
GLENS FALLS    PTCLDY    73  57  57 N9        29.95R

$$
NHZ002-005-011-300300-
_____NEW HAMPSHIRE_____


CITY           SKY/WX    TMP DP  RH WIND       PRES   REMARKS
LEBANON        CLEAR     66  58  75 CALM      29.95R
KEENE          FOG       69  68  96 CALM      29.94R VSB 1/4
MT WASHINGTON  PTCLDY    49  47  95 NW20        N/A
PLYMOUTH       FAIR      66  61  85 N5        29.94S
WHITEFIELD     CLEAR     62  57  83 CALM      29.99R

$$

_____REGIONAL QUEBEC LOCATIONS_____


CITY           SKY/WX    TMP DP  RH WIND       PRES   REMARKS
MONTREAL       MOCLDY    72  54  53 NW7       30.00R
QUEBEC CITY    PTCLDY    66  54  63 N6        29.97R
SHERBROOKE     CLEAR     59  55  88 CALM      29.99R

_____REGIONAL ONTARIO LOCATIONS_____


CITY           SKY/WX    TMP DP  RH WIND       PRES   REMARKS
OTTAWA         PTCLDY    66  54  63 N9        30.03R

______KEY______
VSB  - VISIBILITY IN MILES
WCI  - WIND CHILL INDEX
HX   - HEAT INDEX
$$
NNNN




USA.gov is the U.S. government's official web portal to all federal, state and local government web resources and services.